• In Hungary
  • List of Countries
  • For 7 days
  • Water Temperature
  • Satellite Maps
  • Weather Map
  • News
  • Weather Widgets
  • user-avatar
    Login

    Hourly Weather Verhnyaya Zaimka

    Today, 26 May, Saturday

    Time Temperature Precipitation Wind Pressure Humidity
    00:00 +2°C° 0 mm 2 mps 752 mmHg 66%
    01:00 +1°C° 0 mm 2 mps 752 mmHg 71%
    02:00 +1°C° 0 mm 2 mps 753 mmHg 76%
    03:00 -1°C° 0 mm 2 mps 753 mmHg 81%
    04:00 +2°C° 0 mm 1 mps 753 mmHg 79%
    05:00 +2°C° 0 mm 1 mps 753 mmHg 77%
    06:00 +3°C° 0 mm 1 mps 753 mmHg 77%
    07:00 +5°C° 0 mm 1 mps 753 mmHg 71%
    08:00 +6°C° 0 mm 1 mps 753 mmHg 64%
    09:00 +8°C° 0 mm 1 mps 753 mmHg 58%
    10:00 +8°C° 0.1 mm 1 mps 753 mmHg 54%
    11:00 +9°C° 0.1 mm 1 mps 753 mmHg 51%
    12:00 +9°C° 0 mm 1 mps 753 mmHg 48%
    13:00 +9°C° 0 mm 1 mps 753 mmHg 46%
    14:00 +10°C° 0 mm 1 mps 753 mmHg 44%
    15:00 +10°C° 0 mm 1 mps 752 mmHg 43%
    16:00 +10°C° 0 mm 1 mps 752 mmHg 43%
    17:00 +9°C° 0 mm 1 mps 752 mmHg 43%
    18:00 +9°C° 0 mm 1 mps 752 mmHg 44%
    19:00 +8°C° 0 mm 1 mps 752 mmHg 47%
    20:00 +7°C° 0 mm 1 mps 751 mmHg 50%
    21:00 +6°C° 0 mm 1 mps 751 mmHg 53%
    22:00 +4°C° 0.1 mm 2 mps 751 mmHg 54%
    23:00 +4°C° 0.1 mm 2 mps 751 mmHg 55%

    Tomorrow, 27 May, Sunday

    Time Temperature Precipitation Wind Pressure Humidity
    00:00 +3°C° 0.1 mm 2 mps 751 mmHg 55%
    01:00 +3°C° 0 mm 2 mps 751 mmHg 57%
    02:00 +1°C° 0 mm 3 mps 751 mmHg 59%
    03:00 +1°C° 0 mm 3 mps 751 mmHg 61%
    04:00 +1°C° 0 mm 3 mps 751 mmHg 61%
    05:00 +1°C° 0 mm 3 mps 751 mmHg 61%
    06:00 +1°C° 0 mm 3 mps 751 mmHg 60%
    07:00 +2°C° 0 mm 3 mps 751 mmHg 55%
    08:00 +3°C° 0 mm 3 mps 751 mmHg 50%
    09:00 +4°C° 0 mm 3 mps 751 mmHg 45%
    10:00 +7°C° 0 mm 3 mps 751 mmHg 40%
    11:00 +8°C° 0 mm 2 mps 751 mmHg 35%
    12:00 +9°C° 0 mm 2 mps 751 mmHg 31%
    13:00 +10°C° 0 mm 2 mps 751 mmHg 28%
    14:00 +12°C° 0 mm 2 mps 750 mmHg 26%
    15:00 +12°C° 0 mm 2 mps 750 mmHg 24%
    16:00 +12°C° 0 mm 1 mps 750 mmHg 24%
    17:00 +12°C° 0 mm 1 mps 750 mmHg 24%
    18:00 +12°C° 0 mm 1 mps 750 mmHg 24%
    19:00 +10°C° 0 mm 1 mps 750 mmHg 29%
    20:00 +8°C° 0 mm 1 mps 750 mmHg 35%
    21:00 +6°C° 0 mm 1 mps 750 mmHg 40%
    22:00 +5°C° 0 mm 1 mps 750 mmHg 43%
    23:00 +4°C° 0 mm 1 mps 749 mmHg 47%

    Day after tomorrow, 28 May, Monday

    Time Temperature Precipitation Wind Pressure Humidity
    00:00 +3°C° 0 mm 1 mps 749 mmHg 50%
    01:00 +2°C° 0 mm 1 mps 749 mmHg 53%
    02:00 +2°C° 0 mm 1 mps 749 mmHg 55%
    03:00 +1°C° 0 mm 1 mps 748 mmHg 57%
    04:00 +3°C° 0 mm 1 mps 748 mmHg 54%
    05:00 +4°C° 0 mm 1 mps 748 mmHg 51%
    06:00 +5°C° 0 mm 1 mps 748 mmHg 47%
    07:00 +8°C° 0 mm 1 mps 747 mmHg 41%
    08:00 +10°C° 0 mm 1 mps 747 mmHg 35%
    09:00 +12°C° 0 mm 1 mps 746 mmHg 29%
    10:00 +13°C° 0 mm 1 mps 746 mmHg 27%
    11:00 +14°C° 0 mm 1 mps 746 mmHg 25%
    12:00 +16°C° 0 mm 1 mps 745 mmHg 23%
    13:00 +16°C° 0 mm 2 mps 745 mmHg 22%
    14:00 +17°C° 0 mm 2 mps 745 mmHg 22%
    15:00 +17°C° 0 mm 2 mps 745 mmHg 21%
    16:00 +17°C° 0 mm 2 mps 745 mmHg 22%
    17:00 +17°C° 0 mm 3 mps 745 mmHg 23%
    18:00 +17°C° 0 mm 3 mps 745 mmHg 24%
    19:00 +14°C° 0 mm 3 mps 745 mmHg 31%
    20:00 +13°C° 0 mm 2 mps 745 mmHg 38%
    21:00 +10°C° 0 mm 2 mps 746 mmHg 44%
    22:00 +10°C° 0 mm 2 mps 745 mmHg 47%
    23:00 +9°C° 0 mm 2 mps 745 mmHg 50%

    29 May, Tuesday

    Time Temperature Precipitation Wind Pressure Humidity
    00:00 +9°C° 0 mm 2 mps 745 mmHg 54%
    01:00 +9°C° 0 mm 3 mps 745 mmHg 56%
    02:00 +9°C° 0 mm 3 mps 745 mmHg 59%
    03:00 +8°C° 0 mm 4 mps 745 mmHg 61%
    04:00 +9°C° 0 mm 5 mps 744 mmHg 62%
    05:00 +9°C° 0 mm 5 mps 744 mmHg 63%
    06:00 +9°C° 0 mm 6 mps 743 mmHg 64%
    07:00 +9°C° 0.1 mm 6 mps 743 mmHg 67%
    08:00 +10°C° 0.1 mm 7 mps 743 mmHg 69%
    09:00 +10°C° 0.1 mm 7 mps 742 mmHg 71%
    10:00 +11°C° 0.1 mm 7 mps 742 mmHg 69%
    11:00 +12°C° 0.1 mm 7 mps 742 mmHg 67%
    12:00 +14°C° 0.1 mm 7 mps 742 mmHg 65%
    13:00 +14°C° 0.7 mm 7 mps 742 mmHg 68%
    14:00 +12°C° 0.7 mm 7 mps 741 mmHg 70%
    15:00 +12°C° 0.7 mm 7 mps 741 mmHg 72%
    16:00 +12°C° 0.4 mm 7 mps 741 mmHg 71%
    17:00 +12°C° 0.4 mm 8 mps 742 mmHg 69%
    18:00 +11°C° 0.4 mm 8 mps 742 mmHg 68%
    19:00 +10°C° 0 mm 7 mps 743 mmHg 70%
    20:00 +8°C° 0 mm 7 mps 744 mmHg 72%
    21:00 +5°C° 0 mm 6 mps 745 mmHg 74%
    22:00 +5°C° 0 mm 5 mps 746 mmHg 78%
    23:00 +5°C° 0 mm 4 mps 747 mmHg 81%

    30 May, Wednesday

    Time Temperature Precipitation Wind Pressure Humidity
    00:00 +4°C° 0 mm 3 mps 747 mmHg 85%
    01:00 +4°C° 0 mm 2 mps 747 mmHg 87%
    02:00 +3°C° 0 mm 2 mps 748 mmHg 90%
    03:00 +4°C° 0 mm 1 mps 748 mmHg 93%
    04:00 +5°C° 0 mm 1 mps 748 mmHg 88%
    05:00 +6°C° 0 mm 1 mps 748 mmHg 83%
    06:00 +6°C° 0 mm 2 mps 748 mmHg 79%
    07:00 +8°C° 0 mm 2 mps 748 mmHg 73%
    08:00 +9°C° 0 mm 2 mps 747 mmHg 66%
    09:00 +11°C° 0 mm 3 mps 747 mmHg 60%
    10:00 +12°C° 0 mm 3 mps 747 mmHg 57%
    11:00 +13°C° 0 mm 3 mps 746 mmHg 54%
    12:00 +13°C° 0 mm 3 mps 746 mmHg 51%
    13:00 +13°C° 0.7 mm 3 mps 745 mmHg 61%
    14:00 +12°C° 0.7 mm 4 mps 744 mmHg 71%
    15:00 +11°C° 0.7 mm 4 mps 743 mmHg 81%
    16:00 +11°C° 0.9 mm 4 mps 742 mmHg 84%
    17:00 +11°C° 0.9 mm 3 mps 742 mmHg 87%
    18:00 +10°C° 0.9 mm 3 mps 741 mmHg 91%
    19:00 +10°C° 1.2 mm 3 mps 741 mmHg 93%
    20:00 +10°C° 1.2 mm 3 mps 740 mmHg 94%
    21:00 +10°C° 1.2 mm 2 mps 739 mmHg 96%
    22:00 +9°C° 0.2 mm 2 mps 739 mmHg 97%
    23:00 +9°C° 0.2 mm 3 mps 738 mmHg 97%

    31 May, Thursday

    Time Temperature Precipitation Wind Pressure Humidity
    00:00 +9°C° 0.2 mm 3 mps 737 mmHg 97%
    01:00 +8°C° 1.8 mm 3 mps 736 mmHg 97%
    02:00 +8°C° 1.8 mm 3 mps 736 mmHg 97%
    03:00 +8°C° 1.8 mm 3 mps 735 mmHg 97%
    04:00 +8°C° 1.9 mm 3 mps 736 mmHg 96%
    05:00 +7°C° 1.9 mm 4 mps 736 mmHg 95%
    06:00 +6°C° 1.9 mm 4 mps 736 mmHg 94%
    07:00 +7°C° 0.4 mm 5 mps 737 mmHg 92%
    08:00 +7°C° 0.4 mm 5 mps 738 mmHg 90%
    09:00 +7°C° 0.4 mm 5 mps 740 mmHg 88%
    10:00 +7°C° 0.1 mm 5 mps 741 mmHg 86%
    11:00 +7°C° 0.1 mm 5 mps 742 mmHg 84%
    12:00 +7°C° 0.1 mm 5 mps 744 mmHg 83%
    13:00 +7°C° 0.8 mm 5 mps 745 mmHg 83%
    14:00 +7°C° 0.8 mm 5 mps 746 mmHg 84%
    15:00 +7°C° 0.8 mm 5 mps 747 mmHg 84%
    16:00 +7°C° 0.6 mm 5 mps 748 mmHg 82%
    17:00 +7°C° 0.6 mm 4 mps 748 mmHg 80%
    18:00 +8°C° 0.6 mm 4 mps 749 mmHg 78%
    19:00 +8°C° 0 mm 3 mps 749 mmHg 80%
    20:00 +7°C° 0 mm 2 mps 749 mmHg 81%
    21:00 +6°C° 0 mm 2 mps 750 mmHg 83%
    22:00 +6°C° 0 mm 2 mps 750 mmHg 84%
    23:00 +5°C° 0 mm 2 mps 750 mmHg 85%
    Show more